Regional Weather Roundup
Issued by NWS

Home | Current Version | Previous Version | Graphics & Text | Print | Product List | Glossary On
Versions: 1 2 3 4 5 6 7 8 9 10 11 12 13 14 15 16 17 18 19 20 21 22 23 24 25 26 27 28 29 30 31 32 33 34 35 36 37 38 39 40 41 42 43 44 45 46 47 48 49 50
000
ASUS43 KLMK 041710
RWRKY
KENTUCKY REGIONAL WEATHER ROUNDUP
NATIONAL WEATHER SERVICE LOUISVILLE KY
100 PM EDT WED MAY 04 2016

NOTE "FAIR" INDICATES FEW OR NO CLOUDS BELOW 12,000 FEET
WITH NO SIGNIFICANT WEATHER AND/OR OBSTRUCTIONS TO VISIBILITY.

KYZ001>023-026-027-061>063-070>075-041800-
WESTERN AND SOUTH CENTRAL KENTUCKY

CITY           SKY/WX    TMP DP  RH WIND       PRES   REMARKS
PADUCAH        MOSUNNY   64  50  60 W14G20    29.76R
HENDERSON      PTSUNNY   59  50  72 W8        29.72S
OWENSBORO      CLOUDY    61  53  74 W14       29.73F
HOPKINSVILLE   DRIZZLE   62  50  66 NW8       29.75R
BOWLING GREEN  LGT RAIN  58  52  80 W5        29.75F
GLASGOW        LGT RAIN  55  51  83 W7        29.75S
$$

KYZ024-025-028>034-038-045-046-053-041800-
NORTH CENTRAL KENTUCKY

CITY           SKY/WX    TMP DP  RH WIND       PRES   REMARKS
LOUISVILLE/SDF LGT RAIN  54  50  86 SW9       29.72S
LOUISVILLE/LOU LGT RAIN  54  51  90 SW8       29.72F
FORT KNOX      CLOUDY    54  51  91 SW7       29.70S
$$

KYZ035>037-039>044-047>052-055>060-089>105-041800-
NORTHEAST KENTUCKY

CITY           SKY/WX    TMP DP  RH WIND       PRES   REMARKS
LEXINGTON      CLOUDY    59  42  53 W12       29.71F
COVINGTON      LGT RAIN  52  47  83 SW8       29.69F
FRANKFORT      RAIN      54  47  77 W10G17    29.72R
$$

KYZ054-064>069-076>088-106>120-041800-
SOUTHEAST KENTUCKY

CITY           SKY/WX    TMP DP  RH WIND       PRES   REMARKS
JACKSON        PTSUNNY   63  45  51 CALM      29.72F
LONDON         PTSUNNY   64  36  35 SW15      29.74F
SOMERSET       CLOUDY    61  39  44 W10       29.75F
MIDDLESBORO    PTSUNNY   63  38  40 CALM      29.76F
MONTICELLO     MOSUNNY   64  45  49 SW21G26   29.75F
$$





USA.gov is the U.S. government's official web portal to all federal, state and local government web resources and services.